Date String (YYYY-MM-DD hh:mm:ss) UTC,Instrument flags,Ambient pressure (hPa),Sample flow (lpm),Bypass flow (lpm),Sample temperature (°C),Ambient temperature (°C),ASC tube jacket temperature (°C),LED temperature (°C),Box temperature (°C),Sample RH (%),Span deviation,Mass concentration (μg/m³),Mass concentration (μg/m³),Mass concentration (μg/m³)
DateTimeUTC,F1_M11,P_M11,Q1_M11,Q2_M11,T1_M11,T2_M11,T3_M11,T4_M11,T5_M11,U1_M11,ZSPAN_M11,X2_M11,X0_M11,X1_M11
2022-12-25 04:00:00,,0830.4,4.97,0.00,21.9,20.7,00.0,30.8,23.7,14.1,0000.0,0003.39,0004.04,0003.29
2022-12-25 04:01:00,,0830.4,5.01,0.00,21.9,20.7,00.0,30.8,23.7,14.1,0000.0,0003.41,0004.09,0003.32
2022-12-25 04:02:00,,0830.4,5.03,0.00,21.9,20.6,00.0,30.8,23.7,14.1,0000.0,0003.43,0004.08,0003.36
2022-12-25 04:03:00,,0830.3,5.00,0.00,21.9,20.6,00.0,30.8,23.7,14.1,0000.0,0003.45,0004.24,0003.37
2022-12-25 04:04:00,,0830.4,4.98,0.00,21.9,20.5,00.0,30.8,23.7,14.1,0000.0,0003.42,0004.15,0003.34
2022-12-25 04:05:00,,0830.4,4.98,0.00,21.8,20.5,00.0,30.8,23.7,14.2,0000.0,0003.36,0004.05,0003.29
2022-12-25 04:06:00,,0830.5,5.02,0.00,21.8,20.5,00.0,30.8,23.7,14.2,0000.0,0003.30,0003.88,0003.22
2022-12-25 04:07:00,,0830.4,5.03,0.00,21.8,20.6,00.0,30.8,23.7,14.2,0000.0,0003.23,0003.75,0003.16
2022-12-25 04:08:00,,0830.4,5.00,0.00,21.8,20.6,00.0,30.8,23.7,14.2,0000.0,0003.14,0003.56,0003.05
2022-12-25 04:09:00,,0830.5,4.98,0.00,21.8,20.6,00.0,30.8,23.7,14.1,0000.0,0002.93,0003.29,0002.81
2022-12-25 04:10:00,,0830.5,5.01,0.00,21.8,20.5,00.0,30.8,23.6,14.0,0000.0,0002.72,0003.08,0002.62
2022-12-25 04:11:00,,0830.4,5.02,0.00,21.8,20.4,00.0,30.7,23.6,14.0,0000.0,0002.51,0002.86,0002.41
2022-12-25 04:12:00,,0830.4,5.01,0.00,21.8,20.4,00.0,30.7,23.6,14.2,0000.0,0002.29,0002.63,0002.18
2022-12-25 04:13:00,,0830.5,4.97,0.00,21.8,20.4,00.0,30.7,23.6,14.2,0000.0,0002.09,0002.44,0001.97
2022-12-25 04:14:00,,0830.5,4.98,0.00,21.8,20.4,00.0,30.7,23.6,14.2,0000.0,0001.94,0002.16,0001.83
2022-12-25 04:15:00,,0830.5,5.04,0.00,21.8,20.4,00.0,30.7,23.6,14.2,0000.0,0001.86,0002.12,0001.74
2022-12-25 04:16:00,,0830.5,5.01,0.00,21.8,20.3,00.0,30.7,23.5,14.3,0000.0,0001.80,0002.09,0001.66
2022-12-25 04:17:00,,0830.5,4.99,0.00,21.7,20.4,00.0,30.7,23.6,14.3,0000.0,0001.73,0002.01,0001.59
2022-12-25 04:18:00,,0830.6,4.96,0.00,21.8,21.1,00.0,30.6,23.8,14.1,0000.0,0001.64,0001.93,0001.50
2022-12-25 04:19:00,,0830.6,5.01,0.00,21.9,21.9,00.0,30.6,24.0,14.1,0000.0,0001.52,0001.78,0001.40
2022-12-25 04:20:00,,0830.6,5.04,0.00,22.0,21.8,00.0,30.7,24.0,14.1,0000.0,0001.45,0001.68,0001.33
2022-12-25 04:21:00,,0830.6,4.99,0.00,22.0,21.5,00.0,30.7,24.0,14.0,0000.0,0001.44,0001.70,0001.31
2022-12-25 04:22:00,,0830.6,4.96,0.00,22.0,21.2,00.0,30.7,23.8,14.0,0000.0,0001.45,0001.73,0001.32
2022-12-25 04:23:00,,0830.6,5.00,0.00,22.0,20.9,00.0,30.8,23.8,14.0,0000.0,0001.49,0001.76,0001.36
2022-12-25 04:24:00,,0830.6,5.02,0.00,22.0,20.8,00.0,30.8,23.8,14.0,0000.0,0001.51,0001.75,0001.40
2022-12-25 04:25:00,,0830.6,5.01,0.00,21.9,20.6,00.0,30.8,23.8,14.0,0000.0,0001.49,0001.70,0001.39
2022-12-25 04:26:00,,0830.6,4.99,0.00,21.9,20.5,00.0,30.8,23.7,13.9,0000.0,0001.44,0001.62,0001.37
2022-12-25 04:27:00,,0830.6,4.97,0.00,21.9,20.4,00.0,30.8,23.7,13.9,0000.0,0001.43,0001.56,0001.38
2022-12-25 04:28:00,,0830.6,5.01,0.00,21.9,20.4,00.0,30.8,23.7,13.9,0000.0,0001.42,0002.63,0001.37
2022-12-25 04:29:00,,0830.6,5.02,0.00,21.9,20.3,00.0,30.8,23.6,13.9,0000.0,0001.41,0002.77,0001.37
2022-12-25 04:30:00,,0830.6,5.03,0.00,21.9,20.3,00.0,30.8,23.6,14.0,0000.0,0001.42,0002.77,0001.37
2022-12-25 04:31:00,,0830.6,4.99,0.00,21.8,20.2,00.0,30.7,23.6,14.0,0000.0,0001.48,0002.88,0001.41
2022-12-25 04:32:00,,0830.6,4.98,0.00,21.8,20.2,00.0,30.7,23.6,14.0,0000.0,0001.49,0002.91,0001.43
2022-12-25 04:33:00,,0830.6,5.01,0.00,21.8,20.2,00.0,30.7,23.6,14.0,0000.0,0001.52,0003.01,0001.45
2022-12-25 04:34:00,,0830.6,5.03,0.00,21.8,20.2,00.0,30.7,23.5,14.0,0000.0,0001.54,0003.06,0001.46
2022-12-25 04:35:00,,0830.6,5.01,0.00,21.8,20.2,00.0,30.7,23.5,14.0,0000.0,0001.58,0003.12,0001.48
2022-12-25 04:36:00,,0830.6,4.98,0.00,21.7,20.1,00.0,30.7,23.5,14.0,0000.0,0001.64,0003.20,0001.53
2022-12-25 04:37:00,,0830.6,4.96,0.00,21.7,20.1,00.0,30.7,23.5,14.1,0000.0,0001.74,0003.30,0001.62
2022-12-25 04:38:00,,0830.6,5.00,0.00,21.7,20.1,00.0,30.7,23.4,14.1,0000.0,0001.82,0003.42,0001.70
2022-12-25 04:39:00,,0830.5,5.03,0.00,21.7,20.2,00.0,30.7,23.4,14.2,0000.0,0001.90,0002.62,0001.77
2022-12-25 04:40:00,,0830.5,5.02,0.00,21.7,20.2,00.0,30.6,23.4,14.1,0000.0,0002.07,0002.57,0001.93
2022-12-25 04:41:00,,0830.5,4.98,0.00,21.7,20.2,00.0,30.6,23.4,13.9,0000.0,0002.19,0002.74,0002.04
2022-12-25 04:42:00,,0830.5,4.98,0.00,21.7,20.3,00.0,30.6,23.4,13.9,0000.0,0002.25,0002.81,0002.09
2022-12-25 04:43:00,,0830.5,5.03,0.00,21.7,21.0,00.0,30.6,23.6,14.0,0000.0,0002.38,0002.96,0002.20
2022-12-25 04:44:00,,0830.6,5.03,0.00,21.8,21.8,00.0,30.6,23.8,14.0,0000.0,0002.62,0003.14,0002.43
2022-12-25 04:45:00,,0830.7,4.97,0.00,21.9,21.8,00.0,30.6,23.9,13.9,0000.0,0002.91,0003.42,0002.71
2022-12-25 04:46:00,,0830.6,4.99,0.00,21.9,21.5,00.0,30.7,23.9,13.8,0000.0,0003.06,0003.84,0002.85
2022-12-25 04:47:00,,0830.6,5.03,0.00,21.9,21.3,00.0,30.7,23.8,13.7,0000.0,0003.14,0004.10,0002.97
2022-12-25 04:48:00,,0830.6,5.02,0.00,21.9,21.1,00.0,30.7,23.8,13.6,0000.0,0003.19,0004.25,0003.06
2022-12-25 04:49:00,,0830.6,4.97,0.00,21.9,20.9,00.0,30.7,23.7,13.5,0000.0,0003.23,0004.34,0003.13
2022-12-25 04:50:00,,0830.6,4.98,0.00,21.9,20.8,00.0,30.7,23.7,13.6,0000.0,0003.27,0004.31,0003.18
2022-12-25 04:51:00,,0830.6,5.02,0.00,21.9,20.6,00.0,30.7,23.7,13.7,0000.0,0003.26,0004.30,0003.16
2022-12-25 04:52:00,,0830.6,5.02,0.00,21.9,20.6,00.0,30.7,23.7,13.7,0000.0,0003.22,0004.19,0003.13
2022-12-25 04:53:00,,0830.7,4.99,0.00,21.9,20.5,00.0,30.7,23.7,13.7,0000.0,0003.23,0004.17,0003.16
2022-12-25 04:54:00,,0830.6,4.96,0.00,21.9,20.5,00.0,30.7,23.7,13.7,0000.0,0003.25,0004.19,0003.18
2022-12-25 04:55:00,,0830.6,5.00,0.00,21.9,20.5,00.0,30.7,23.6,13.7,0000.0,0003.22,0004.09,0003.16
2022-12-25 04:56:00,,0830.6,5.01,0.00,21.8,20.5,00.0,30.7,23.6,13.6,0000.0,0003.13,0003.89,0003.06
2022-12-25 04:57:00,,0830.6,5.01,0.00,21.8,20.5,00.0,30.7,23.6,13.6,0000.0,0003.12,0003.64,0003.03
2022-12-25 04:58:00,,0830.6,4.98,0.00,21.8,20.5,00.0,30.7,23.6,13.6,0000.0,0003.13,0003.47,0003.04
2022-12-25 04:59:00,,0830.6,4.96,0.00,21.8,20.5,00.0,30.7,23.6,13.7,0000.0,0003.17,0003.50,0003.09
